Location: Aalen
(48.8330°N, 10.1000°E)
Time: 19:08:10
(UTC+02:00)

Transit 4A - Pass Details

Date: 07 August 2021
Orbit: 871 x 974 km, 66.8° (Epoch: 16 September)

Event Time Altitude Azimuth Distance (km) Brightness Sun altitude
Rises 06:51:59 0° 325° (NW) 3,472 10.7 6.9°
Reaches altitude 10° 06:54:45 10° 336° (NNW) 2,537 10.1 7.3°
Maximum altitude 06:59:56 32° 38° (NE) 1,488 9.9 8.2°
Drops below altitude 10° 07:05:12 10° 100° (E) 2,569 11.7 9.0°
Sets 07:08:00 0° 111° (ESE) 3,523 11.9 9.4°
